Miscellaneous Local Product
Issued by NWS Hastings, NE

Home | Current Version | Previous Version | Text Only | Print | Product List | Glossary On
Versions: 1 2 3 4 5 6 7 8 9 10 11 12 13 14 15 16 17 18 19 20 21 22 23 24 25 26 27 28 29 30 31 32 33 34 35 36 37 38 39 40 41 42 43 44 45 46 47 48 49 50
000
AXUS43 KGID 251002
MISGRI

GID CWA HOURLY WEATHER ROUNDUP
NATIONAL WEATHER SERVICE HASTINGS NE
500 AM CDT THU AUG 25 2016

NOTE: "FAIR" INDICATES FEW OR NO CLOUDS BELOW 12,000 FEET WITH NO
SIGNIFICANT WEATHER AND/OR OBSTRUCTIONS TO VISIBILITY.

...SOUTH CENTRAL NEBRASKA...

CITY           SKY/WX    TMP DP  RH WIND       PRES   REMARKS
GRAND ISLAND   CLOUDY    58  55  90 W5        30.13S
HASTINGS       CLOUDY    59  54  83 W3        30.14S
KEARNEY        CLOUDY   N/A N/A N/A S6        30.13F
ORD            MOCLDY    57  54  89 CALM      30.12S
YORK           MOCLDY    55  55 100 CALM      30.11R
AURORA         CLOUDY    58  57  98 W3        30.12S
LEXINGTON      MOCLDY    57  55  91 NW6       30.15R
HOLDREGE       MOCLDY    57  55  91 NW3       30.14F
HEBRON         CLOUDY    60  57  89 CALM      30.10F

...NEBRASKA PANHANDLE...

CITY           SKY/WX    TMP DP  RH WIND       PRES   REMARKS
CHADRON        CLOUDY    54  47  77 NE5       30.25R
ALLIANCE       MOCLDY    49  47  93 CALM      30.23R
SCOTTSBLUFF    CLOUDY    52  49  89 NW5       30.23R
SIDNEY         CLEAR     43  39  86 W7        30.23S

...WESTERN AND NORTH CENTRAL NEBRASKA...

CITY           SKY/WX    TMP DP  RH WIND       PRES   REMARKS
VALENTINE      PTCLDY    57  44  62 NW7       30.20R
AINSWORTH      PTCLDY    55  51  85 N8        30.19R
ONEILL         CLOUDY    61  52  72 NW9       30.14S
BROKEN BOW     MOCLDY    53  53 100 N5        30.15S
IMPERIAL       PTCLDY    53  46  77 CALM      30.18S
NORTH PLATTE   CLOUDY    51  49  92 CALM      30.18R
MCCOOK         CLOUDY    56  52  86 W5        30.16S

...EASTERN NEBRASKA...

CITY           SKY/WX    TMP DP  RH WIND       PRES   REMARKS
NORFOLK        CLEAR     55  53  93 CALM      30.11S
SO SIOUX CITY  CLOUDY    60  57  89 NW6       30.09S
TEKAMAH        PTCLDY    54  52  93 CALM      30.08F
COLUMBUS       MOCLDY    57  48  72 CALM      30.11R
ALBION         PTCLDY    56  53  91 NW8       30.12R
OMAHA EPPLEY   CLOUDY    60  57  89 N6        30.09S
OFFUTT AFB     CLEAR     58  58 100 CALM      30.08S
MILLARD        PTCLDY    60  57  88 CALM      30.09S
LINCOLN        PTCLDY    59  56  89 N3        30.10S
NEBRASKA CITY  PTCLDY    62  62 100 N7        30.08F
BEATRICE       MOCLDY    59  57  94 NE5       30.08S
FALLS CITY     PTCLDY    66  65  96 NW5       30.05S

...NORTHERN KANSAS...

CITY           SKY/WX    TMP DP  RH WIND       PRES   REMARKS
GOODLAND       MOCLDY    53  48  83 NE5       30.18S
HILL CITY      RAIN      59  57  93 NE6       30.15F FOG
NORTON         SUNNY     57  50  77 CALM      30.15
SMITH CENTER   RAIN      57  55  94 N8        30.14F
BELOIT         CLOUDY    57  55  94 N6        30.10R
HAYS           CLOUDY    61  52  72 NE15      30.08F
RUSSELL        LGT RAIN  61  60  97 N14       30.10R
CONCORDIA      HVY RAIN  62  59  90 NW8       30.09R FOG
SALINA         LGT RAIN  67  64  90 CALM      30.03F
TOPEKA         RAIN      71  70  96 SE3       30.03F



USA.gov is the U.S. government's official web portal to all federal, state and local government web resources and services.